EW6308 Weather Reports


Display with metric or nautical units.
time (UTC)temp
F
wind
direction
speed
MPH
gust
MPH
rain 1hr
in
rain 24hr
in
rain mn
in
humidity
%
barometer
mb
20260903145533 81 134 2.0 7.0 0.00 0.00 0.00 87 1016.3
20260903145029 81 104 4.0 6.0 0.00 0.00 0.00 85 1016.2
20260903144527 81 212 2.0 4.0 0.00 0.00 0.00 85 1016.1
20260903144024 81 75 1.0 3.0 0.00 0.00 0.00 85 1016.3
20260903143520 81 161 2.0 4.0 0.00 0.00 0.00 85 1016.0
20260903143015 80 133 2.0 11.0 0.00 0.00 0.00 86 1016.0
20260903142510 80 140 3.0 6.0 0.00 0.00 0.00 86 1016.0
20260903142007 80 210 3.0 4.0 0.00 0.00 0.00 87 1016.0
20260903141503 80 201 5.0 6.0 0.00 0.00 0.00 87 1015.9
20260903140958 80 171 4.0 7.0 0.00 0.00 0.00 87 1016.0
20260903140453 80 149 3.0 6.0 0.00 0.00 0.00 88 1015.9
20260903135948 80 201 3.0 7.0 0.00 0.00 0.00 88 1016.0
20260903135444 80 205 4.0 8.0 0.00 0.00 0.00 88 1016.0
20260903134944 79 221 2.0 4.0 0.00 0.00 0.00 88 1015.6
20260903134443 79 251 2.0 4.0 0.00 0.00 0.00 88 1015.8
20260903133940 80 107 2.0 4.0 0.00 0.00 0.00 87 1016.1
20260903133437 80 119 2.0 2.0 0.00 0.00 0.00 87 1016.1
20260903132932 79 329 1.0 1.0 0.00 0.00 0.00 86 1016.1
20260903132428 79 92 2.0 4.0 0.00 0.00 0.00 86 1015.9
20260903131927 79 172 1.0 2.0 0.00 0.00 0.00 86 1015.9
20260903131422 79 197 2.0 2.0 0.00 0.00 0.00 86 1015.6
20260903130921 79 107 2.0 4.0 0.00 0.00 0.00 86 1015.7
20260903130416 79 185 2.0 4.0 0.00 0.00 0.00 85 1015.6
20260903125915 79 229 0.0 2.0 0.00 0.00 0.00 85 1015.8
20260903125410 79 190 2.0 3.0 0.00 0.00 0.00 85 1015.7
20260903124909 79 247 1.0 2.0 0.00 0.00 0.00 85 1015.5
20260903124405 79 72 1.0 3.0 0.00 0.00 0.00 86 1015.6
20260903123903 79 171 1.0 1.0 0.00 0.00 0.00 85 1015.4
20260903123358 79 120 2.0 2.0 0.00 0.00 0.00 85 1015.3
20260903122857 79 202 4.0 4.0 0.00 0.00 0.00 85 1015.4
20260903122352 79 247 0.0 2.0 0.00 0.00 0.00 85 1015.5
20260903121851 79 234 0.0 2.0 0.00 0.00 0.00 85 1015.4
20260903121346 78 226 1.0 2.0 0.00 0.00 0.00 85 1015.3
20260903120842 78 217 0.0 1.0 0.00 0.00 0.00 84 1015.0
20260903120340 78 218 0.0 1.0 0.00 0.00 0.00 84 1015.2
20260903115839 78 188 1.0 2.0 0.00 0.00 0.00 84 1015.3
20260903115334 78 191 2.0 3.0 0.00 0.00 0.00 84 1015.0
20260903114834 78 162 3.0 4.0 0.00 0.00 0.00 84 1014.9
20260903114330 78 193 2.0 6.0 0.00 0.00 0.00 84 1015.0
20260903113825 78 227 2.0 2.0 0.00 0.00 0.00 84 1015.1
20260903113320 78 162 5.0 6.0 0.00 0.00 0.00 83 1014.8
20260903112816 78 226 3.0 7.0 0.00 0.00 0.00 83 1014.8
20260903112312 78 208 3.0 6.0 0.00 0.00 0.00 83 1014.8
20260903111810 78 223 2.0 6.0 0.00 0.00 0.00 83 1014.7
20260903111306 78 169 2.0 4.0 0.00 0.00 0.00 82 1014.8
20260903110802 78 167 5.0 7.0 0.00 0.00 0.00 82 1014.7
20260903110257 79 251 1.0 4.0 0.00 0.00 0.00 82 1014.8
20260903105757 79 193 2.0 6.0 0.00 0.00 0.00 81 1014.7
20260903105252 79 223 3.0 4.0 0.00 0.00 0.00 81 1015.0
20260903104752 79 194 0.0 4.0 0.00 0.00 0.00 81 1015.0
20260903104247 79 180 3.0 3.0 0.00 0.00 0.00 81 1014.9
20260903103742 79 227 0.0 2.0 0.00 0.00 0.00 81 1014.9
20260903103239 79 214 4.0 7.0 0.00 0.00 0.00 81 1014.9
20260903102735 79 240 2.0 3.0 0.00 0.00 0.00 81 1015.0
20260903102234 79 156 3.0 7.0 0.00 0.00 0.00 80 1014.9
20260903101732 79 221 3.0 4.0 0.00 0.00 0.00 80 1015.0
20260903101229 79 183 2.0 4.0 0.00 0.00 0.00 80 1015.0
20260903100724 79 111 3.0 4.0 0.00 0.00 0.00 80 1014.9
20260903100223 79 164 4.0 7.0 0.00 0.00 0.00 80 1015.0
20260903095720 79 216 6.0 9.0 0.00 0.00 0.00 80 1014.8
20260903095216 79 233 1.0 4.0 0.00 0.00 0.00 80 1014.7
20260903094710 79 198 2.0 6.0 0.00 0.00 0.00 80 1014.8
20260903094206 79 189 3.0 4.0 0.00 0.00 0.00 80 1014.9
20260903093702 79 214 4.0 8.0 0.00 0.00 0.00 80 1014.9
20260903093157 79 189 3.0 6.0 0.00 0.00 0.00 80 1014.7
20260903092656 79 176 6.0 9.0 0.00 0.00 0.00 80 1014.7
20260903092151 79 192 2.0 6.0 0.00 0.00 0.00 80 1014.9
20260903091650 79 146 4.0 6.0 0.00 0.00 0.00 80 1014.9
20260903091150 79 187 2.0 6.0 0.00 0.00 0.00 80 1015.0
20260903090646 79 198 3.0 4.0 0.00 0.00 0.00 80 1015.1
20260903090144 79 201 2.0 6.0 0.00 0.00 0.00 79 1015.0
20260903085643 79 194 4.0 8.0 0.00 0.00 0.00 80 1015.2
20260903085139 79 200 4.0 7.0 0.00 0.00 0.00 80 1015.0
20260903084636 79 206 4.0 8.0 0.00 0.00 0.00 79 1015.0
20260903084131 79 241 4.0 9.0 0.00 0.00 0.00 79 1015.0
20260903083627 79 194 3.0 9.0 0.00 0.00 0.00 79 1015.0
20260903083122 79 231 1.0 2.0 0.00 0.00 0.00 80 1015.1
20260903082621 79 196 2.0 7.0 0.00 0.00 0.00 80 1015.1
20260903082118 79 242 6.0 8.0 0.00 0.00 0.00 80 1015.0
20260903081612 79 192 4.0 6.0 0.00 0.00 0.00 80 1015.2
20260903081108 79 146 5.0 6.0 0.00 0.00 0.00 80 1015.2
20260903080604 79 206 4.0 6.0 0.00 0.00 0.00 80 1015.1
20260903075555 79 197 2.0 3.0 0.00 0.00 0.00 80 1015.2
20260903075051 79 208 2.0 3.0 0.00 0.00 0.00 81 1015.2
20260903074550 79 195 3.0 6.0 0.00 0.00 0.00 81 1015.1
20260903074049 79 193 6.0 7.0 0.00 0.00 0.00 81 1015.1
20260903073545 79 178 5.0 6.0 0.00 0.00 0.00 80 1015.1
20260903073041 79 137 3.0 8.0 0.00 0.00 0.00 80 1015.1
20260903072536 79 203 4.0 9.0 0.00 0.00 0.00 80 1014.9
20260903072033 79 187 5.0 6.0 0.00 0.00 0.00 80 1015.0
20260903071529 79 225 3.0 7.0 0.00 0.00 0.00 80 1014.8
20260903071024 79 183 7.0 9.0 0.00 0.00 0.00 80 1014.9
20260903070524 79 127 4.0 13.0 0.00 0.00 0.00 80 1014.8
20260903070020 80 164 2.0 7.0 0.00 0.00 0.00 80 1014.7
20260903065519 80 214 4.0 6.0 0.00 0.00 0.00 80 1015.0
20260903065019 80 210 3.0 9.0 0.00 0.00 0.00 80 1015.0
20260903064519 80 125 2.0 10.0 0.00 0.00 0.00 80 1015.1
20260903064015 80 170 3.0 8.0 0.00 0.00 0.00 80 1015.2
20260903063510 80 197 2.0 6.0 0.00 0.00 0.00 80 1015.1
20260903063005 80 165 6.0 8.0 0.00 0.00 0.00 80 1015.1
20260903062500 80 213 3.0 6.0 0.00 0.00 0.00 79 1014.9
20260903061956 80 197 2.0 6.0 0.00 0.00 0.00 79 1015.2
20260903061456 80 221 2.0 3.0 0.00 0.00 0.00 79 1015.3
20260903060952 80 211 2.0 4.0 0.00 0.00 0.00 78 1015.3
20260903060451 80 126 4.0 7.0 0.00 0.00 0.00 78 1015.4
20260903055951 80 205 6.0 7.0 0.00 0.00 0.00 78 1015.2
20260903055449 80 205 2.0 8.0 0.00 0.00 0.00 78 1015.1
20260903054948 80 197 3.0 7.0 0.00 0.00 0.00 77 1015.3
20260903054443 80 194 3.0 4.0 0.00 0.00 0.00 77 1015.5
20260903053939 81 190 3.0 6.0 0.00 0.00 0.00 77 1015.2
20260903053438 81 200 4.0 6.0 0.00 0.00 0.00 77 1015.3
20260903052935 81 204 3.0 4.0 0.00 0.00 0.00 76 1015.2
20260903052431 81 192 2.0 2.0 0.00 0.00 0.00 76 1015.2
20260903051926 81 141 2.0 3.0 0.00 0.00 0.00 76 1015.3
20260903051422 81 180 1.0 3.0 0.00 0.00 0.00 76 1015.5
20260903050917 81 197 1.0 2.0 0.00 0.00 0.00 76 1015.3
20260903050416 81 238 1.0 2.0 0.00 0.00 0.00 76 1015.3
20260903045910 81 127 1.0 3.0 0.00 0.00 0.00 75 1015.3
20260903045406 81 200 1.0 1.0 0.00 0.00 0.00 75 1015.2
20260903044903 81 206 1.0 1.0 0.00 0.00 0.00 75 1015.2
20260903044403 81 198 0.0 2.0 0.00 0.00 0.00 74 1015.5
20260903043901 81 207 1.0 2.0 0.00 0.00 0.00 74 1015.4
20260903043401 81 199 2.0 3.0 0.00 0.00 0.00 74 1015.5
20260903042859 82 251 2.0 3.0 0.00 0.00 0.00 74 1015.5
20260903042354 82 90 0.0 2.0 0.00 0.00 0.00 74 1015.6
20260903041850 82 128 2.0 3.0 0.00 0.00 0.00 75 1015.5
20260903041346 82 211 1.0 3.0 0.00 0.00 0.00 75 1015.5
20260903040842 82 178 1.0 2.0 0.00 0.00 0.00 75 1015.4
20260903040341 82 178 2.0 4.0 0.00 0.00 0.00 75 1015.4
20260903035837 82 232 0.0 2.0 0.00 0.00 0.00 74 1015.7
20260903035332 82 226 1.0 3.0 0.00 0.00 0.00 74 1015.9
20260903034827 82 215 1.0 6.0 0.00 0.00 0.00 74 1015.8
20260903034322 82 235 0.0 2.0 0.00 0.00 0.00 74 1015.7
20260903033817 82 171 1.0 4.0 0.00 0.00 0.00 74 1015.9
20260903033313 82 183 2.0 4.0 0.00 0.00 0.00 74 1015.9
20260903032807 82 345 1.0 8.0 0.00 0.00 0.00 73 1015.8
20260903032305 82 352 1.0 7.0 0.00 0.00 0.00 73 1015.6
20260903031804 83 224 1.0 1.0 0.00 0.00 0.00 73 1015.5
20260903031303 83 210 3.0 4.0 0.00 0.00 0.00 73 1015.4
20260903030759 83 182 4.0 7.0 0.00 0.00 0.00 72 1015.3
20260903030255 83 178 3.0 7.0 0.00 0.00 0.00 71 1015.5
20260903025750 84 251 3.0 7.0 0.00 0.00 0.00 71 1015.5
20260903025245 84 201 1.0 6.0 0.00 0.00 0.00 70 1015.5
20260903024740 84 218 4.0 7.0 0.00 0.00 0.00 70 1015.4
20260903024239 84 185 3.0 7.0 0.00 0.00 0.00 69 1015.4
20260903023735 84 153 3.0 4.0 0.00 0.00 0.00 68 1015.2
20260903023230 85 211 3.0 4.0 0.00 0.00 0.00 67 1015.3
20260903022730 85 197 1.0 4.0 0.00 0.00 0.00 67 1015.2
20260903022229 85 206 2.0 3.0 0.00 0.00 0.00 67 1015.1
20260903021724 85 242 0.0 2.0 0.00 0.00 0.00 67 1015.2
20260903021220 85 217 0.0 3.0 0.00 0.00 0.00 67 1014.8
20260903020720 85 212 1.0 2.0 0.00 0.00 0.00 66 1014.7
20260903020219 86 138 0.0 4.0 0.00 0.00 0.00 66 1014.5
20260903015715 86 137 4.0 7.0 0.00 0.00 0.00 66 1014.7
20260903015210 86 92 2.0 3.0 0.00 0.00 0.00 65 1014.4
20260903014706 86 118 5.0 7.0 0.00 0.00 0.00 65 1014.2
20260903014206 86 88 2.0 2.0 0.00 0.00 0.00 65 1014.0
20260903013705 86 104 5.0 6.0 0.00 0.00 0.00 64 1014.2
20260903013205 86 114 6.0 8.0 0.00 0.00 0.00 63 1014.2
20260903012704 87 93 4.0 6.0 0.00 0.00 0.00 63 1014.2
20260903012203 87 117 5.0 7.0 0.00 0.00 0.00 62 1013.8
20260903011658 87 55 2.0 8.0 0.00 0.00 0.00 61 1014.0
20260903011158 87 91 7.0 8.0 0.00 0.00 0.00 61 1013.9
20260903010653 88 107 4.0 8.0 0.00 0.00 0.00 60 1013.7
20260903010153 88 69 3.0 8.0 0.00 0.00 0.00 60 1013.7
20260903005652 88 67 3.0 4.0 0.00 0.00 0.00 59 1013.7
20260903005148 89 102 5.0 9.0 0.00 0.00 0.00 58 1013.7
20260903004643 89 236 2.0 8.0 0.00 0.00 0.00 58 1013.8
20260903004137 89 90 6.0 8.0 0.00 0.00 0.00 57 1013.7
20260903003633 90 99 4.0 10.0 0.00 0.00 0.00 56 1013.7
20260903003128 90 119 4.0 9.0 0.00 0.00 0.00 56 1013.7
20260903002624 90 72 3.0 7.0 0.00 0.00 0.00 55 1013.7
20260903002118 91 37 6.0 8.0 0.00 0.00 0.00 55 1013.3
20260903001613 91 1 5.0 10.0 0.00 0.00 0.00 54 1013.4
20260903001112 91 122 6.0 14.0 0.00 0.00 0.00 54 1013.3
20260903000609 92 4 5.0 9.0 0.00 0.00 0.00 53 1013.4
20260903000108 92 116 4.0 11.0 0.00 0.00 0.00 52 1013.3
20260902235607 92 101 9.0 13.0 0.00 0.00 0.00 52 1013.2
20260902235102 93 103 11.0 21.0 0.00 0.00 0.00 50 1013.4
20260902234556 94 89 5.0 11.0 0.00 0.00 0.00 48 1013.1
20260902234055 96 110 14.0 21.0 0.00 0.00 0.00 45 1013.2
20260902233550 98 98 4.0 14.0 0.00 0.00 0.00 41 1012.9
20260902233050 98 73 3.0 8.0 0.00 0.00 0.00 40 1012.9
20260902232544 99 31 5.0 8.0 0.00 0.00 0.00 38 1012.8
20260902232043 99 29 3.0 7.0 0.00 0.00 0.00 36 1012.8
20260902231538 99 354 3.0 4.0 0.00 0.00 0.00 36 1012.8
20260902231038 99 2 4.0 4.0 0.00 0.00 0.00 36 1012.7
20260902230533 99 125 2.0 3.0 0.00 0.00 0.00 36 1012.7
20260902230032 99 39 4.0 6.0 0.00 0.00 0.00 35 1012.8
20260902225528 99 9 2.0 4.0 0.00 0.00 0.00 35 1012.7
20260902225027 100 341 4.0 10.0 0.00 0.00 0.00 35 1012.7
20260902224526 100 352 7.0 10.0 0.00 0.00 0.00 34 1012.6
20260902224022 101 28 1.0 6.0 0.00 0.00 0.00 35 1012.6
20260902223518 100 89 3.0 8.0 0.00 0.00 0.00 35 1012.6
20260902223017 101 32 4.0 7.0 0.00 0.00 0.00 35 1012.6
20260902222516 100 315 1.0 8.0 0.00 0.00 0.00 36 1012.6
20260902222015 100 62 3.0 3.0 0.00 0.00 0.00 35 1012.7
20260902221515 99 51 2.0 3.0 0.00 0.00 0.00 37 1012.7
20260902221010 99 317 2.0 6.0 0.00 0.00 0.00 36 1012.9
20260902220505 99 10 6.0 8.0 0.00 0.00 0.00 37 1013.0
20260902215959 99 339 7.0 9.0 0.00 0.00 0.00 36 1012.9
20260902215456 99 340 4.0 6.0 0.00 0.00 0.00 36 1012.9
20260902214951 100 354 6.0 8.0 0.00 0.00 0.00 35 1012.9
20260902214450 100 86 2.0 7.0 0.00 0.00 0.00 36 1012.9
20260902213944 99 288 1.0 3.0 0.00 0.00 0.00 36 1012.9
20260902213441 99 112 4.0 6.0 0.00 0.00 0.00 37 1013.0
20260902212939 99 13 3.0 3.0 0.00 0.00 0.00 36 1013.1
20260902212436 99 315 4.0 8.0 0.00 0.00 0.00 36 1013.2
20260902211932 101 26 3.0 9.0 0.00 0.00 0.00 35 1013.3
20260902211427 102 32 5.0 13.0 0.00 0.00 0.00 34 1013.1
20260902210922 101 45 3.0 7.0 0.00 0.00 0.00 34 1013.1
20260902210422 99 224 1.0 2.0 0.00 0.00 0.00 36 1013.4
20260902205920 99 323 6.0 11.0 0.00 0.00 0.00 36 1013.2
20260902205416 100 354 6.0 10.0 0.00 0.00 0.00 36 1013.3
20260902204912 101 222 2.0 8.0 0.00 0.00 0.00 35 1013.4
20260902204411 101 3 6.0 8.0 0.00 0.00 0.00 35 1013.6
20260902203907 101 306 2.0 8.0 0.00 0.00 0.00 35 1013.6
20260902203402 100 3 6.0 7.0 0.00 0.00 0.00 35 1013.8
20260902202901 101 301 4.0 4.0 0.00 0.00 0.00 35 1013.7
20260902202357 103 354 5.0 11.0 0.00 0.00 0.00 34 1014.0
20260902201854 102 256 1.0 6.0 0.00 0.00 0.00 35 1013.9
20260902201354 101 6 6.0 8.0 0.00 0.00 0.00 35 1013.8
20260902200849 100 259 4.0 6.0 0.00 0.00 0.00 36 1014.1
20260902200344 101 325 7.0 8.0 0.00 0.00 0.00 36 1014.1
20260902195839 100 358 4.0 8.0 0.00 0.00 0.00 37 1014.3
20260902195338 101 345 4.0 8.0 0.00 0.00 0.00 36 1014.2
20260902194833 100 204 4.0 6.0 0.00 0.00 0.00 36 1014.5
20260902194333 100 309 6.0 7.0 0.00 0.00 0.00 36 1014.5
20260902193829 100 245 1.0 3.0 0.00 0.00 0.00 35 1014.6
20260902193325 100 351 4.0 9.0 0.00 0.00 0.00 36 1014.6
20260902192823 100 245 0.0 4.0 0.00 0.00 0.00 38 1014.6
20260902192322 101 342 6.0 9.0 0.00 0.00 0.00 37 1015.0
20260902191822 101 308 4.0 6.0 0.00 0.00 0.00 37 1014.8
20260902191317 101 7 5.0 10.0 0.00 0.00 0.00 37 1014.9
20260902190813 100 215 1.0 4.0 0.00 0.00 0.00 39 1015.0
20260902190311 99 289 4.0 4.0 0.00 0.00 0.00 39 1015.1
20260902185808 99 307 6.0 8.0 0.00 0.00 0.00 40 1015.1
20260902185306 98 336 5.0 7.0 0.00 0.00 0.00 41 1015.4
20260902184759 98 356 4.0 9.0 0.00 0.00 0.00 39 1015.3
20260902184254 98 234 0.0 2.0 0.00 0.00 0.00 41 1015.6
20260902183750 98 3 4.0 10.0 0.00 0.00 0.00 41 1015.7
20260902183246 98 293 2.0 3.0 0.00 0.00 0.00 42 1015.6
20260902182742 98 58 4.0 7.0 0.00 0.00 0.00 42 1015.6
20260902182238 98 9 5.0 6.0 0.00 0.00 0.00 42 1015.7
20260902181734 97 344 6.0 11.0 0.00 0.00 0.00 43 1016.0
20260902181234 97 349 6.0 10.0 0.00 0.00 0.00 42 1016.0
20260902180729 98 333 4.0 8.0 0.00 0.00 0.00 42 1016.1
20260902180224 98 347 3.0 9.0 0.00 0.00 0.00 43 1016.1
20260902175719 97 11 2.0 7.0 0.00 0.00 0.00 43 1016.0
20260902175215 96 319 7.0 8.0 0.00 0.00 0.00 44 1016.3
20260902174711 95 352 4.0 6.0 0.00 0.00 0.00 44 1016.4
20260902174206 96 340 7.0 11.0 0.00 0.00 0.00 45 1016.5
20260902173702 96 354 4.0 6.0 0.00 0.00 0.00 46 1016.6
20260902173156 97 293 4.0 9.0 0.00 0.00 0.00 45 1016.7
20260902172656 95 226 2.0 2.0 0.00 0.00 0.00 46 1016.9
20260902172155 95 288 1.0 2.0 0.00 0.00 0.00 47 1017.0
20260902171651 95 240 4.0 6.0 0.00 0.00 0.00 48 1017.0
20260902171147 96 33 4.0 8.0 0.00 0.00 0.00 46 1017.3
20260902170643 95 2 2.0 3.0 0.00 0.00 0.00 47 1017.5
20260902170138 95 295 4.0 4.0 0.00 0.00 0.00 48 1017.4
20260902165633 94 223 1.0 3.0 0.00 0.00 0.00 49 1017.5
20260902165132 94 166 2.0 7.0 0.00 0.00 0.00 49 1017.5
20260902164628 94 259 3.0 7.0 0.00 0.00 0.00 50 1017.6
20260902164126 93 264 1.0 3.0 0.00 0.00 0.00 50 1017.5
20260902163622 93 336 3.0 4.0 0.00 0.00 0.00 52 1017.6
20260902163121 94 338 4.0 8.0 0.00 0.00 0.00 51 1017.5
20260902162620 93 92 2.0 3.0 0.00 0.00 0.00 51 1017.7
20260902162115 91 15 0.0 3.0 0.00 0.00 0.00 54 1017.6
20260902161610 91 10 3.0 6.0 0.00 0.00 0.00 55 1017.7
20260902161106 92 351 6.0 7.0 0.00 0.00 0.00 53 1018.0
20260902160602 91 37 1.0 3.0 0.00 0.00 0.00 54 1017.8
20260902160057 91 206 3.0 7.0 0.00 0.00 0.00 54 1017.7
20260902155555 91 218 1.0 2.0 0.00 0.00 0.00 53 1017.9
20260902155054 91 55 2.0 3.0 0.00 0.00 0.00 55 1017.9
20260902154549 92 349 3.0 6.0 0.00 0.00 0.00 54 1017.8
20260902154044 91 178 1.0 2.0 0.00 0.00 0.00 55 1017.8
20260902153542 91 335 2.0 3.0 0.00 0.00 0.00 55 1017.8
20260902153038 89 284 1.0 1.0 0.00 0.00 0.00 57 1017.7
20260902152535 90 78 2.0 6.0 0.00 0.00 0.00 57 1017.8
20260902152030 89 162 3.0 6.0 0.00 0.00 0.00 57 1017.8
20260902151526 89 217 3.0 3.0 0.00 0.00 0.00 58 1017.9
20260902151025 88 93 1.0 3.0 0.00 0.00 0.00 59 1017.7
20260902150521 88 336 2.0 4.0 0.00 0.00 0.00 59 1017.8
20260902150016 88 345 2.0 3.0 0.00 0.00 0.00 60 1017.8